| time (UTC) | temp C | wind direction | speed KPH | gust KPH | rain 1hr cm | rain 24hr cm | rain mn cm | humidity % | barometer mb |
| 20260507125708 | 15 | 285 | 3.2 | 6.4 | 0.00 | 0.00 | 0.00 | 32 | 1016.5 |
| 20260507125206 | 14 | 295 | 1.6 | 3.2 | 0.00 | 0.00 | 0.00 | 34 | 1016.3 |
| 20260507124702 | 14 | 10 | 0.0 | 3.2 | 0.00 | 0.00 | 0.00 | 34 | 1016.4 |
| 20260507124159 | 13 | 0 | 1.6 | 3.2 | 0.00 | 0.00 | 0.00 | 35 | 1016.4 |
| 20260507123658 | 14 | 269 | 0.0 | 1.6 | 0.00 | 0.00 | 0.00 | 33 | 1016.4 |
| 20260507123154 | 14 | 17 | 1.6 | 4.8 | 0.00 | 0.00 | 0.00 | 34 | 1016.5 |
| 20260507122649 | 13 | 33 | 0.0 | 3.2 | 0.00 | 0.00 | 0.00 | 35 | 1016.5 |
| 20260507122145 | 13 | 49 | 0.0 | 4.8 | 0.00 | 0.00 | 0.00 | 35 | 1016.5 |
| 20260507121641 | 13 | 26 | 1.6 | 3.2 | 0.00 | 0.00 | 0.00 | 35 | 1016.5 |
| 20260507121138 | 15 | 269 | 0.0 | 1.6 | 0.00 | 0.00 | 0.00 | 33 | 1016.3 |
| 20260507120634 | 15 | 279 | 0.0 | 4.8 | 0.00 | 0.00 | 0.00 | 33 | 1016.4 |
| 20260507120131 | 15 | 13 | 1.6 | 3.2 | 0.00 | 0.00 | 0.00 | 33 | 1016.4 |
| 20260507115627 | 15 | 3 | 1.6 | 6.4 | 0.00 | 0.00 | 0.00 | 32 | 1016.4 |
| 20260507115122 | 15 | 282 | 1.6 | 4.8 | 0.00 | 0.00 | 0.00 | 32 | 1016.4 |
| 20260507114619 | 15 | 298 | 1.6 | 6.4 | 0.00 | 0.00 | 0.00 | 32 | 1016.6 |
| 20260507114116 | 15 | 298 | 1.6 | 4.8 | 0.00 | 0.00 | 0.00 | 33 | 1016.6 |
| 20260507113614 | 14 | 297 | 0.0 | 3.2 | 0.00 | 0.00 | 0.00 | 34 | 1016.5 |
| 20260507113110 | 13 | 299 | 3.2 | 4.8 | 0.00 | 0.00 | 0.00 | 37 | 1016.3 |
| 20260507112609 | 13 | 53 | 0.0 | 1.6 | 0.00 | 0.00 | 0.00 | 38 | 1016.4 |
| 20260507112105 | 13 | 336 | 0.0 | 3.2 | 0.00 | 0.00 | 0.00 | 36 | 1016.5 |
| 20260507111602 | 14 | 15 | 0.0 | 3.2 | 0.00 | 0.00 | 0.00 | 34 | 1016.3 |
| 20260507111059 | 15 | 294 | 3.2 | 4.8 | 0.00 | 0.00 | 0.00 | 34 | 1016.6 |
| 20260507110555 | 14 | 291 | 4.8 | 4.8 | 0.00 | 0.00 | 0.00 | 35 | 1016.6 |
| 20260507110052 | 13 | 289 | 3.2 | 4.8 | 0.00 | 0.00 | 0.00 | 36 | 1016.5 |
| 20260507105548 | 13 | 302 | 3.2 | 3.2 | 0.00 | 0.00 | 0.00 | 37 | 1016.6 |
| 20260507105044 | 13 | 104 | 0.0 | 3.2 | 0.00 | 0.00 | 0.00 | 35 | 1016.6 |
| 20260507104542 | 15 | 309 | 1.6 | 4.8 | 0.00 | 0.00 | 0.00 | 34 | 1016.7 |
| 20260507104038 | 15 | 303 | 1.6 | 6.4 | 0.00 | 0.00 | 0.00 | 34 | 1016.4 |
| 20260507103534 | 15 | 332 | 3.2 | 6.4 | 0.00 | 0.00 | 0.00 | 34 | 1016.5 |
| 20260507103031 | 16 | 4 | 0.0 | 4.8 | 0.00 | 0.00 | 0.00 | 33 | 1016.7 |
| 20260507102528 | 15 | 275 | 3.2 | 8.0 | 0.00 | 0.00 | 0.00 | 34 | 1016.5 |
| 20260507102024 | 16 | 268 | 4.8 | 11.3 | 0.00 | 0.00 | 0.00 | 33 | 1016.6 |
| 20260507101520 | 15 | 288 | 6.4 | 8.0 | 0.00 | 0.00 | 0.00 | 35 | 1016.6 |
| 20260507101016 | 15 | 314 | 3.2 | 6.4 | 0.00 | 0.00 | 0.00 | 36 | 1016.6 |
| 20260507100514 | 14 | 293 | 3.2 | 8.0 | 0.00 | 0.00 | 0.00 | 36 | 1016.5 |
| 20260507100012 | 15 | 24 | 0.0 | 3.2 | 0.00 | 0.00 | 0.00 | 35 | 1016.6 |
| 20260507095509 | 15 | 224 | 0.0 | 4.8 | 0.00 | 0.00 | 0.00 | 34 | 1016.5 |
| 20260507095005 | 15 | 258 | 3.2 | 6.4 | 0.00 | 0.00 | 0.00 | 33 | 1016.6 |
| 20260507094502 | 15 | 296 | 0.0 | 4.8 | 0.00 | 0.00 | 0.00 | 32 | 1016.5 |
| 20260507093959 | 15 | 356 | 4.8 | 4.8 | 0.00 | 0.00 | 0.00 | 32 | 1016.5 |
| 20260507093456 | 15 | 344 | 0.0 | 4.8 | 0.00 | 0.00 | 0.00 | 33 | 1016.6 |
| 20260507092955 | 15 | 315 | 1.6 | 4.8 | 0.00 | 0.00 | 0.00 | 34 | 1016.6 |
| 20260507092451 | 16 | 313 | 1.6 | 4.8 | 0.00 | 0.00 | 0.00 | 35 | 1016.5 |
| 20260507091947 | 16 | 271 | 1.6 | 3.2 | 0.00 | 0.00 | 0.00 | 36 | 1016.6 |
| 20260507091443 | 16 | 345 | 1.6 | 4.8 | 0.00 | 0.00 | 0.00 | 36 | 1016.7 |
| 20260507090940 | 16 | 23 | 3.2 | 4.8 | 0.00 | 0.00 | 0.00 | 37 | 1016.5 |
| 20260507090436 | 16 | 328 | 1.6 | 8.0 | 0.00 | 0.00 | 0.00 | 37 | 1016.6 |
| 20260507085932 | 16 | 313 | 4.8 | 4.8 | 0.00 | 0.00 | 0.00 | 37 | 1016.8 |
| 20260507085429 | 16 | 312 | 3.2 | 4.8 | 0.00 | 0.00 | 0.00 | 36 | 1016.6 |
| 20260507084926 | 15 | 0 | 4.8 | 4.8 | 0.00 | 0.00 | 0.00 | 36 | 1016.7 |
| 20260507084423 | 15 | 282 | 4.8 | 6.4 | 0.00 | 0.00 | 0.00 | 37 | 1016.6 |
| 20260507083920 | 15 | 295 | 0.0 | 8.0 | 0.00 | 0.00 | 0.00 | 39 | 1016.5 |
| 20260507083417 | 15 | 295 | 3.2 | 4.8 | 0.00 | 0.00 | 0.00 | 40 | 1016.7 |
| 20260507082913 | 15 | 344 | 1.6 | 3.2 | 0.00 | 0.00 | 0.00 | 41 | 1016.8 |
| 20260507082409 | 15 | 271 | 1.6 | 3.2 | 0.00 | 0.00 | 0.00 | 40 | 1016.8 |
| 20260507081906 | 15 | 0 | 3.2 | 4.8 | 0.00 | 0.00 | 0.00 | 40 | 1016.9 |
| 20260507081402 | 15 | 302 | 1.6 | 6.4 | 0.00 | 0.00 | 0.00 | 41 | 1016.9 |
| 20260507080859 | 15 | 317 | 4.8 | 8.0 | 0.00 | 0.00 | 0.00 | 42 | 1017.0 |
| 20260507080355 | 15 | 311 | 0.0 | 8.0 | 0.00 | 0.00 | 0.00 | 43 | 1016.7 |
| 20260507075851 | 16 | 257 | 8.0 | 9.7 | 0.00 | 0.00 | 0.00 | 43 | 1016.8 |
| 20260507075347 | 16 | 209 | 3.2 | 4.8 | 0.00 | 0.00 | 0.00 | 41 | 1016.8 |
| 20260507074843 | 16 | 25 | 0.0 | 3.2 | 0.00 | 0.00 | 0.00 | 40 | 1016.9 |
| 20260507074341 | 16 | 296 | 3.2 | 8.0 | 0.00 | 0.00 | 0.00 | 41 | 1016.8 |
| 20260507073838 | 16 | 279 | 3.2 | 4.8 | 0.00 | 0.00 | 0.00 | 43 | 1016.9 |
| 20260507073334 | 16 | 146 | 0.0 | 3.2 | 0.00 | 0.00 | 0.00 | 43 | 1016.9 |
| 20260507072832 | 16 | 300 | 1.6 | 4.8 | 0.00 | 0.00 | 0.00 | 42 | 1016.8 |
| 20260507072329 | 16 | 264 | 4.8 | 11.3 | 0.00 | 0.00 | 0.00 | 42 | 1016.9 |
| 20260507071826 | 16 | 283 | 3.2 | 9.7 | 0.00 | 0.00 | 0.00 | 42 | 1016.8 |
| 20260507071324 | 16 | 275 | 4.8 | 8.0 | 0.00 | 0.00 | 0.00 | 42 | 1016.7 |
| 20260507070819 | 16 | 275 | 0.0 | 8.0 | 0.00 | 0.00 | 0.00 | 43 | 1016.8 |
| 20260507070317 | 16 | 278 | 3.2 | 6.4 | 0.00 | 0.00 | 0.00 | 42 | 1016.8 |
| 20260507065814 | 16 | 281 | 4.8 | 8.0 | 0.00 | 0.00 | 0.00 | 42 | 1016.7 |
| 20260507065310 | 16 | 260 | 6.4 | 11.3 | 0.00 | 0.00 | 0.00 | 42 | 1016.8 |
| 20260507064808 | 16 | 241 | 6.4 | 6.4 | 0.00 | 0.00 | 0.00 | 43 | 1017.0 |
| 20260507064306 | 16 | 271 | 4.8 | 6.4 | 0.00 | 0.00 | 0.00 | 42 | 1017.0 |
| 20260507063804 | 16 | 254 | 6.4 | 11.3 | 0.00 | 0.00 | 0.00 | 42 | 1017.0 |
| 20260507063300 | 16 | 250 | 4.8 | 9.7 | 0.00 | 0.00 | 0.00 | 42 | 1017.0 |
| 20260507062757 | 16 | 261 | 3.2 | 4.8 | 0.00 | 0.00 | 0.00 | 42 | 1016.9 |
| 20260507062254 | 16 | 240 | 4.8 | 8.0 | 0.00 | 0.00 | 0.00 | 42 | 1016.8 |
| 20260507061752 | 16 | 275 | 4.8 | 11.3 | 0.00 | 0.00 | 0.00 | 41 | 1016.9 |
| 20260507061250 | 17 | 263 | 4.8 | 12.9 | 0.00 | 0.00 | 0.00 | 41 | 1016.7 |
| 20260507060748 | 17 | 253 | 3.2 | 12.9 | 0.00 | 0.00 | 0.00 | 41 | 1016.6 |
| 20260507060244 | 17 | 250 | 4.8 | 6.4 | 0.00 | 0.00 | 0.00 | 41 | 1016.9 |
| 20260507055741 | 17 | 289 | 3.2 | 6.4 | 0.00 | 0.00 | 0.00 | 41 | 1016.8 |
| 20260507055236 | 17 | 293 | 1.6 | 3.2 | 0.00 | 0.00 | 0.00 | 41 | 1016.8 |
| 20260507054733 | 17 | 274 | 3.2 | 6.4 | 0.00 | 0.00 | 0.00 | 40 | 1016.7 |
| 20260507054229 | 17 | 236 | 8.0 | 11.3 | 0.00 | 0.00 | 0.00 | 40 | 1016.9 |
| 20260507053727 | 17 | 258 | 8.0 | 12.9 | 0.00 | 0.00 | 0.00 | 40 | 1016.8 |
| 20260507053224 | 17 | 237 | 8.0 | 9.7 | 0.00 | 0.00 | 0.00 | 40 | 1016.9 |
| 20260507052723 | 17 | 235 | 9.7 | 14.5 | 0.00 | 0.00 | 0.00 | 40 | 1017.0 |
| 20260507052219 | 17 | 241 | 3.2 | 11.3 | 0.00 | 0.00 | 0.00 | 39 | 1016.8 |
| 20260507051717 | 18 | 226 | 3.2 | 6.4 | 0.00 | 0.00 | 0.00 | 39 | 1016.8 |
| 20260507051214 | 18 | 276 | 3.2 | 6.4 | 0.00 | 0.00 | 0.00 | 38 | 1016.8 |
| 20260507050710 | 18 | 234 | 4.8 | 8.0 | 0.00 | 0.00 | 0.00 | 38 | 1016.7 |
| 20260507050207 | 18 | 238 | 3.2 | 6.4 | 0.00 | 0.00 | 0.00 | 38 | 1016.9 |
| 20260507045704 | 18 | 211 | 3.2 | 6.4 | 0.00 | 0.00 | 0.00 | 38 | 1016.9 |
| 20260507045200 | 18 | 232 | 4.8 | 9.7 | 0.00 | 0.00 | 0.00 | 38 | 1016.9 |
| 20260507044658 | 18 | 231 | 6.4 | 12.9 | 0.00 | 0.00 | 0.00 | 38 | 1016.9 |
| 20260507044154 | 18 | 243 | 8.0 | 16.1 | 0.00 | 0.00 | 0.00 | 37 | 1016.9 |
| 20260507043650 | 19 | 229 | 3.2 | 14.5 | 0.00 | 0.00 | 0.00 | 37 | 1016.8 |
| 20260507043147 | 18 | 245 | 3.2 | 9.7 | 0.00 | 0.00 | 0.00 | 37 | 1016.6 |
| 20260507042644 | 19 | 235 | 4.8 | 12.9 | 0.00 | 0.00 | 0.00 | 37 | 1016.8 |
| 20260507042138 | 18 | 249 | 4.8 | 8.0 | 0.00 | 0.00 | 0.00 | 37 | 1016.7 |
| 20260507041636 | 19 | 252 | 4.8 | 11.3 | 0.00 | 0.00 | 0.00 | 36 | 1016.7 |
| 20260507041132 | 19 | 224 | 11.3 | 14.5 | 0.00 | 0.00 | 0.00 | 36 | 1016.6 |
| 20260507040630 | 19 | 209 | 8.0 | 14.5 | 0.00 | 0.00 | 0.00 | 36 | 1016.5 |
| 20260507040126 | 20 | 235 | 3.2 | 14.5 | 0.00 | 0.00 | 0.00 | 35 | 1016.4 |
| 20260507035622 | 20 | 248 | 4.8 | 12.9 | 0.00 | 0.00 | 0.00 | 35 | 1016.6 |
| 20260507035118 | 20 | 229 | 4.8 | 11.3 | 0.00 | 0.00 | 0.00 | 35 | 1016.4 |
| 20260507034615 | 20 | 227 | 3.2 | 16.1 | 0.00 | 0.00 | 0.00 | 35 | 1016.5 |
| 20260507034113 | 20 | 211 | 6.4 | 14.5 | 0.00 | 0.00 | 0.00 | 35 | 1016.2 |
| 20260507033611 | 20 | 222 | 6.4 | 14.5 | 0.00 | 0.00 | 0.00 | 35 | 1016.3 |
| 20260507033108 | 20 | 226 | 8.0 | 14.5 | 0.00 | 0.00 | 0.00 | 34 | 1016.0 |
| 20260507032605 | 20 | 233 | 4.8 | 19.3 | 0.00 | 0.00 | 0.00 | 34 | 1016.2 |
| 20260507032056 | 20 | 218 | 4.8 | 16.1 | 0.00 | 0.00 | 0.00 | 33 | 1016.2 |
| 20260507031552 | 21 | 233 | 6.4 | 9.7 | 0.00 | 0.00 | 0.00 | 33 | 1015.8 |
| 20260507031049 | 21 | 231 | 6.4 | 12.9 | 0.00 | 0.00 | 0.00 | 33 | 1015.8 |
| 20260507030546 | 21 | 225 | 8.0 | 11.3 | 0.00 | 0.00 | 0.00 | 33 | 1015.8 |
| 20260507030044 | 21 | 204 | 6.4 | 17.7 | 0.00 | 0.00 | 0.00 | 32 | 1015.8 |
| 20260507025541 | 21 | 226 | 14.5 | 16.1 | 0.00 | 0.00 | 0.00 | 32 | 1015.6 |
| 20260507025038 | 21 | 230 | 4.8 | 17.7 | 0.00 | 0.00 | 0.00 | 31 | 1015.6 |
| 20260507024536 | 21 | 226 | 8.0 | 14.5 | 0.00 | 0.00 | 0.00 | 31 | 1015.5 |
| 20260507024032 | 22 | 245 | 6.4 | 12.9 | 0.00 | 0.00 | 0.00 | 31 | 1015.5 |
| 20260507023528 | 22 | 248 | 6.4 | 11.3 | 0.00 | 0.00 | 0.00 | 30 | 1015.6 |
| 20260507023026 | 22 | 261 | 0.0 | 9.7 | 0.00 | 0.00 | 0.00 | 29 | 1015.3 |
| 20260507022523 | 22 | 189 | 3.2 | 8.0 | 0.00 | 0.00 | 0.00 | 28 | 1015.4 |
| 20260507022018 | 23 | 228 | 4.8 | 8.0 | 0.00 | 0.00 | 0.00 | 27 | 1015.6 |
| 20260507021514 | 23 | 225 | 4.8 | 6.4 | 0.00 | 0.00 | 0.00 | 22 | 1015.4 |
| 20260507021011 | 23 | 286 | 3.2 | 4.8 | 0.00 | 0.00 | 0.00 | 22 | 1015.5 |
| 20260507020508 | 24 | 102 | 0.0 | 3.2 | 0.00 | 0.00 | 0.00 | 22 | 1015.2 |
| 20260507020005 | 25 | 294 | 4.8 | 6.4 | 0.00 | 0.00 | 0.00 | 22 | 1015.3 |
| 20260507015503 | 25 | 269 | 8.0 | 11.3 | 0.00 | 0.00 | 0.00 | 21 | 1015.0 |
| 20260507014955 | 25 | 330 | 4.8 | 8.0 | 0.00 | 0.00 | 0.00 | 21 | 1015.2 |
| 20260507014451 | 26 | 359 | 4.8 | 8.0 | 0.00 | 0.00 | 0.00 | 21 | 1015.2 |
| 20260507013947 | 26 | 331 | 0.0 | 4.8 | 0.00 | 0.00 | 0.00 | 20 | 1015.1 |
| 20260507013444 | 25 | 325 | 0.0 | 6.4 | 0.00 | 0.00 | 0.00 | 20 | 1015.2 |
| 20260507012941 | 25 | 59 | 4.8 | 8.0 | 0.00 | 0.00 | 0.00 | 20 | 1015.1 |
| 20260507012437 | 26 | 302 | 4.8 | 11.3 | 0.00 | 0.00 | 0.00 | 20 | 1015.2 |
| 20260507011928 | 26 | 299 | 0.0 | 8.0 | 0.00 | 0.00 | 0.00 | 19 | 1015.2 |
| 20260507011426 | 26 | 93 | 1.6 | 4.8 | 0.00 | 0.00 | 0.00 | 18 | 1015.3 |
| 20260507010925 | 26 | 305 | 3.2 | 12.9 | 0.00 | 0.00 | 0.00 | 18 | 1015.2 |
| 20260507010421 | 26 | 0 | 3.2 | 8.0 | 0.00 | 0.00 | 0.00 | 18 | 1015.3 |
| 20260507005918 | 26 | 276 | 6.4 | 11.3 | 0.00 | 0.00 | 0.00 | 18 | 1015.2 |
| 20260507005415 | 26 | 315 | 3.2 | 11.3 | 0.00 | 0.00 | 0.00 | 17 | 1015.4 |
| 20260507004911 | 26 | 37 | 3.2 | 11.3 | 0.00 | 0.00 | 0.00 | 17 | 1015.2 |
| 20260507004408 | 26 | 19 | 3.2 | 9.7 | 0.00 | 0.00 | 0.00 | 17 | 1015.2 |
| 20260507003906 | 27 | 8 | 4.8 | 12.9 | 0.00 | 0.00 | 0.00 | 18 | 1015.1 |
| 20260507003400 | 27 | 265 | 4.8 | 8.0 | 0.00 | 0.00 | 0.00 | 17 | 1014.8 |
| 20260507002856 | 27 | 272 | 0.0 | 6.4 | 0.00 | 0.00 | 0.00 | 19 | 1015.2 |
| 20260507002352 | 27 | 312 | 6.4 | 12.9 | 0.00 | 0.00 | 0.00 | 19 | 1015.0 |
| 20260507001850 | 27 | 82 | 8.0 | 19.3 | 0.00 | 0.00 | 0.00 | 19 | 1014.8 |
| 20260507001346 | 27 | 226 | 9.7 | 9.7 | 0.00 | 0.00 | 0.00 | 19 | 1014.8 |
| 20260507000843 | 27 | 337 | 6.4 | 12.9 | 0.00 | 0.00 | 0.00 | 19 | 1014.8 |
| 20260507000338 | 27 | 340 | 6.4 | 12.9 | 0.00 | 0.00 | 0.00 | 19 | 1015.0 |
| 20260506235835 | 27 | 267 | 4.8 | 9.7 | 0.00 | 0.00 | 0.00 | 18 | 1014.7 |
| 20260506235332 | 27 | 303 | 4.8 | 9.7 | 0.00 | 0.00 | 0.00 | 18 | 1014.8 |
| 20260506234828 | 28 | 318 | 3.2 | 9.7 | 0.00 | 0.00 | 0.00 | 17 | 1015.0 |
| 20260506234326 | 27 | 273 | 4.8 | 16.1 | 0.00 | 0.00 | 0.00 | 19 | 1015.0 |
| 20260506233823 | 27 | 338 | 0.0 | 11.3 | 0.00 | 0.00 | 0.00 | 19 | 1014.7 |
| 20260506233319 | 27 | 306 | 3.2 | 8.0 | 0.00 | 0.00 | 0.00 | 19 | 1015.0 |
| 20260506232816 | 27 | 184 | 0.0 | 4.8 | 0.00 | 0.00 | 0.00 | 20 | 1015.0 |
| 20260506232311 | 26 | 50 | 4.8 | 11.3 | 0.00 | 0.00 | 0.00 | 20 | 1014.8 |
| 20260506231808 | 26 | 59 | 6.4 | 19.3 | 0.00 | 0.00 | 0.00 | 20 | 1015.1 |
| 20260506231307 | 26 | 123 | 12.9 | 16.1 | 0.00 | 0.00 | 0.00 | 20 | 1015.0 |
| 20260506230803 | 26 | 79 | 4.8 | 9.7 | 0.00 | 0.00 | 0.00 | 21 | 1015.2 |
| 20260506230300 | 26 | 41 | 3.2 | 9.7 | 0.00 | 0.00 | 0.00 | 21 | 1015.2 |
| 20260506225756 | 27 | 0 | 3.2 | 12.9 | 0.00 | 0.00 | 0.00 | 20 | 1015.3 |
| 20260506225254 | 26 | 356 | 6.4 | 19.3 | 0.00 | 0.00 | 0.00 | 20 | 1015.3 |
| 20260506224750 | 26 | 68 | 9.7 | 14.5 | 0.00 | 0.00 | 0.00 | 21 | 1015.1 |
| 20260506224248 | 26 | 213 | 0.0 | 9.7 | 0.00 | 0.00 | 0.00 | 21 | 1015.2 |
| 20260506223744 | 26 | 113 | 9.7 | 17.7 | 0.00 | 0.00 | 0.00 | 22 | 1015.3 |
| 20260506223239 | 26 | 79 | 4.8 | 11.3 | 0.00 | 0.00 | 0.00 | 21 | 1015.4 |
| 20260506222737 | 26 | 100 | 6.4 | 12.9 | 0.00 | 0.00 | 0.00 | 21 | 1015.5 |
| 20260506222232 | 27 | 37 | 4.8 | 11.3 | 0.00 | 0.00 | 0.00 | 21 | 1015.5 |
| 20260506221730 | 28 | 354 | 4.8 | 9.7 | 0.00 | 0.00 | 0.00 | 20 | 1015.5 |
| 20260506221223 | 27 | 353 | 3.2 | 14.5 | 0.00 | 0.00 | 0.00 | 21 | 1015.5 |
| 20260506220720 | 27 | 44 | 3.2 | 19.3 | 0.00 | 0.00 | 0.00 | 21 | 1015.7 |
| 20260506220219 | 27 | 69 | 8.0 | 14.5 | 0.00 | 0.00 | 0.00 | 21 | 1015.7 |
| 20260506215717 | 27 | 64 | 4.8 | 16.1 | 0.00 | 0.00 | 0.00 | 22 | 1016.0 |
| 20260506215212 | 27 | 71 | 6.4 | 20.9 | 0.00 | 0.00 | 0.00 | 21 | 1015.9 |
| 20260506214709 | 26 | 317 | 4.8 | 12.9 | 0.00 | 0.00 | 0.00 | 22 | 1015.9 |
| 20260506214206 | 25 | 63 | 4.8 | 14.5 | 0.00 | 0.00 | 0.00 | 22 | 1016.0 |
| 20260506213705 | 26 | 99 | 9.7 | 20.9 | 0.00 | 0.00 | 0.00 | 22 | 1015.9 |
| 20260506213202 | 25 | 94 | 4.8 | 14.5 | 0.00 | 0.00 | 0.00 | 23 | 1016.2 |
| 20260506212659 | 26 | 111 | 14.5 | 14.5 | 0.00 | 0.00 | 0.00 | 22 | 1015.9 |
| 20260506212154 | 26 | 87 | 8.0 | 11.3 | 0.00 | 0.00 | 0.00 | 22 | 1016.4 |
| 20260506211649 | 27 | 286 | 4.8 | 19.3 | 0.00 | 0.00 | 0.00 | 22 | 1016.3 |
| 20260506211146 | 26 | 240 | 3.2 | 11.3 | 0.00 | 0.00 | 0.00 | 22 | 1016.3 |
| 20260506210643 | 26 | 359 | 6.4 | 17.7 | 0.00 | 0.00 | 0.00 | 22 | 1016.4 |
| 20260506210140 | 26 | 15 | 6.4 | 11.3 | 0.00 | 0.00 | 0.00 | 22 | 1016.5 |
| 20260506205637 | 26 | 19 | 4.8 | 9.7 | 0.00 | 0.00 | 0.00 | 23 | 1016.4 |
| 20260506205132 | 26 | 255 | 4.8 | 11.3 | 0.00 | 0.00 | 0.00 | 23 | 1016.4 |
| 20260506204631 | 26 | 316 | 6.4 | 16.1 | 0.00 | 0.00 | 0.00 | 23 | 1016.4 |
| 20260506204127 | 25 | 344 | 1.6 | 17.7 | 0.00 | 0.00 | 0.00 | 23 | 1016.5 |
| 20260506203625 | 26 | 100 | 1.6 | 12.9 | 0.00 | 0.00 | 0.00 | 23 | 1016.5 |
| 20260506203121 | 26 | 314 | 6.4 | 11.3 | 0.00 | 0.00 | 0.00 | 23 | 1016.6 |
| 20260506202620 | 26 | 323 | 6.4 | 17.7 | 0.00 | 0.00 | 0.00 | 23 | 1016.6 |
| 20260506202116 | 25 | 337 | 3.2 | 12.9 | 0.00 | 0.00 | 0.00 | 24 | 1016.6 |
| 20260506201613 | 25 | 135 | 11.3 | 17.7 | 0.00 | 0.00 | 0.00 | 24 | 1016.5 |
| 20260506201109 | 25 | 91 | 11.3 | 19.3 | 0.00 | 0.00 | 0.00 | 23 | 1016.6 |
| 20260506200605 | 25 | 44 | 4.8 | 33.8 | 0.00 | 0.00 | 0.00 | 23 | 1016.6 |
| 20260506195559 | 23 | 58 | 4.8 | 16.1 | 0.00 | 0.00 | 0.00 | 25 | 1016.9 |
| 20260506195055 | 24 | 62 | 16.1 | 25.7 | 0.00 | 0.00 | 0.00 | 25 | 1017.0 |
| 20260506194553 | 25 | 92 | 8.0 | 12.9 | 0.00 | 0.00 | 0.00 | 24 | 1017.0 |
| 20260506194049 | 25 | 77 | 1.6 | 8.0 | 0.00 | 0.00 | 0.00 | 24 | 1017.4 |
| 20260506193547 | 25 | 53 | 8.0 | 12.9 | 0.00 | 0.00 | 0.00 | 24 | 1017.1 |
| 20260506193039 | 25 | 66 | 6.4 | 11.3 | 0.00 | 0.00 | 0.00 | 24 | 1017.0 |
| 20260506192535 | 25 | 332 | 3.2 | 20.9 | 0.00 | 0.00 | 0.00 | 24 | 1017.0 |
| 20260506192031 | 25 | 322 | 6.4 | 11.3 | 0.00 | 0.00 | 0.00 | 23 | 1017.1 |
| 20260506191528 | 24 | 42 | 4.8 | 14.5 | 0.00 | 0.00 | 0.00 | 24 | 1017.0 |
| 20260506191024 | 25 | 31 | 6.4 | 16.1 | 0.00 | 0.00 | 0.00 | 24 | 1017.0 |
| 20260506190521 | 23 | 296 | 4.8 | 12.9 | 0.00 | 0.00 | 0.00 | 24 | 1017.1 |
| 20260506190019 | 24 | 70 | 4.8 | 11.3 | 0.00 | 0.00 | 0.00 | 24 | 1017.1 |
| 20260506185515 | 23 | 67 | 11.3 | 19.3 | 0.00 | 0.00 | 0.00 | 24 | 1017.4 |
| 20260506185012 | 23 | 88 | 6.4 | 19.3 | 0.00 | 0.00 | 0.00 | 25 | 1017.4 |
| 20260506184509 | 24 | 338 | 6.4 | 12.9 | 0.00 | 0.00 | 0.00 | 24 | 1017.3 |
| 20260506184006 | 23 | 323 | 0.0 | 14.5 | 0.00 | 0.00 | 0.00 | 25 | 1017.3 |
| 20260506183501 | 23 | 332 | 4.8 | 16.1 | 0.00 | 0.00 | 0.00 | 25 | 1017.3 |
| 20260506182953 | 23 | 322 | 4.8 | 12.9 | 0.00 | 0.00 | 0.00 | 24 | 1017.4 |
| 20260506182450 | 23 | 52 | 4.8 | 14.5 | 0.00 | 0.00 | 0.00 | 25 | 1017.5 |
| 20260506181947 | 23 | 320 | 6.4 | 11.3 | 0.00 | 0.00 | 0.00 | 24 | 1017.5 |
| 20260506181445 | 23 | 40 | 3.2 | 14.5 | 0.00 | 0.00 | 0.00 | 25 | 1017.6 |
| 20260506180941 | 23 | 264 | 8.0 | 11.3 | 0.00 | 0.00 | 0.00 | 25 | 1017.5 |
| 20260506180438 | 23 | 289 | 6.4 | 14.5 | 0.00 | 0.00 | 0.00 | 25 | 1017.6 |
| 20260506175929 | 23 | 354 | 4.8 | 14.5 | 0.00 | 0.00 | 0.00 | 25 | 1017.5 |
| 20260506175426 | 22 | 78 | 8.0 | 12.9 | 0.00 | 0.00 | 0.00 | 26 | 1017.4 |
| 20260506174923 | 23 | 324 | 8.0 | 17.7 | 0.00 | 0.00 | 0.00 | 25 | 1017.5 |
| 20260506174421 | 22 | 40 | 6.4 | 14.5 | 0.00 | 0.00 | 0.00 | 26 | 1017.3 |
| 20260506173917 | 22 | 64 | 9.7 | 19.3 | 0.00 | 0.00 | 0.00 | 26 | 1017.4 |
| 20260506173414 | 21 | 23 | 3.2 | 12.9 | 0.00 | 0.00 | 0.00 | 30 | 1017.4 |
| 20260506172911 | 22 | 314 | 3.2 | 8.0 | 0.00 | 0.00 | 0.00 | 29 | 1017.1 |
| 20260506172408 | 22 | 313 | 1.6 | 8.0 | 0.00 | 0.00 | 0.00 | 29 | 1017.5 |
| 20260506171905 | 21 | 66 | 3.2 | 12.9 | 0.00 | 0.00 | 0.00 | 29 | 1017.4 |
| 20260506171402 | 21 | 33 | 3.2 | 11.3 | 0.00 | 0.00 | 0.00 | 30 | 1017.3 |
| 20260506170900 | 20 | 95 | 6.4 | 14.5 | 0.00 | 0.00 | 0.00 | 31 | 1017.3 |
| 20260506170355 | 20 | 332 | 6.4 | 14.5 | 0.00 | 0.00 | 0.00 | 32 | 1017.3 |
| 20260506165849 | 20 | 110 | 6.4 | 9.7 | 0.00 | 0.00 | 0.00 | 31 | 1017.4 |
| 20260506165347 | 20 | 92 | 6.4 | 19.3 | 0.00 | 0.00 | 0.00 | 32 | 1017.4 |
| 20260506164843 | 19 | 43 | 3.2 | 9.7 | 0.00 | 0.00 | 0.00 | 32 | 1017.3 |
| 20260506164340 | 20 | 23 | 4.8 | 11.3 | 0.00 | 0.00 | 0.00 | 32 | 1017.5 |
| 20260506163838 | 19 | 99 | 4.8 | 11.3 | 0.00 | 0.00 | 0.00 | 31 | 1017.4 |
| 20260506163332 | 18 | 96 | 3.2 | 9.7 | 0.00 | 0.00 | 0.00 | 32 | 1017.3 |
| 20260506162827 | 18 | 128 | 6.4 | 14.5 | 0.00 | 0.00 | 0.00 | 32 | 1017.0 |
| 20260506162325 | 18 | 94 | 14.5 | 17.7 | 0.00 | 0.00 | 0.00 | 32 | 1017.3 |
| 20260506161822 | 18 | 165 | 6.4 | 11.3 | 0.00 | 0.00 | 0.00 | 33 | 1017.3 |
| 20260506161319 | 17 | 127 | 8.0 | 14.5 | 0.00 | 0.00 | 0.00 | 34 | 1016.9 |
| 20260506160812 | 18 | 94 | 6.4 | 11.3 | 0.00 | 0.00 | 0.00 | 33 | 1017.0 |
| 20260506160308 | 18 | 144 | 3.2 | 8.0 | 0.00 | 0.00 | 0.00 | 32 | 1017.1 |
| 20260506155807 | 18 | 170 | 3.2 | 9.7 | 0.00 | 0.00 | 0.00 | 33 | 1016.9 |
| 20260506155306 | 18 | 109 | 8.0 | 9.7 | 0.00 | 0.00 | 0.00 | 32 | 1016.8 |
| 20260506153416 | 17 | 142 | 0.0 | 8.0 | 0.00 | 0.00 | 0.00 | 35 | 1016.8 |
| 20260506152913 | 16 | 106 | 4.8 | 9.7 | 0.00 | 0.00 | 0.00 | 36 | 1017.1 |
| 20260506152410 | 17 | 116 | 6.4 | 8.0 | 0.00 | 0.00 | 0.00 | 36 | 1016.8 |
| 20260506151909 | 16 | 132 | 0.0 | 6.4 | 0.00 | 0.00 | 0.00 | 36 | 1016.9 |
| 20260506151405 | 16 | 102 | 6.4 | 9.7 | 0.00 | 0.00 | 0.00 | 38 | 1017.0 |
| 20260506150903 | 16 | 159 | 4.8 | 8.0 | 0.00 | 0.00 | 0.00 | 38 | 1016.9 |
| 20260506150359 | 16 | 126 | 4.8 | 8.0 | 0.00 | 0.00 | 0.00 | 38 | 1016.9 |
| 20260506145856 | 16 | 61 | 3.2 | 4.8 | 0.00 | 0.00 | 0.00 | 37 | 1016.8 |
| 20260506145352 | 16 | 73 | 3.2 | 4.8 | 0.00 | 0.00 | 0.00 | 37 | 1016.7 |
| 20260506144850 | 16 | 124 | 3.2 | 4.8 | 0.00 | 0.00 | 0.00 | 38 | 1016.7 |
| 20260506144346 | 16 | 148 | 1.6 | 6.4 | 0.00 | 0.00 | 0.00 | 38 | 1016.8 |
| 20260506143844 | 15 | 170 | 0.0 | 6.4 | 0.00 | 0.00 | 0.00 | 39 | 1016.7 |
| 20260506143341 | 16 | 105 | 6.4 | 8.0 | 0.00 | 0.00 | 0.00 | 39 | 1016.7 |
| 20260506142839 | 15 | 174 | 0.0 | 4.8 | 0.00 | 0.00 | 0.00 | 41 | 1016.9 |
| 20260506142337 | 14 | 217 | 0.0 | 3.2 | 0.00 | 0.00 | 0.00 | 41 | 1016.8 |
| 20260506141835 | 14 | 187 | 1.6 | 4.8 | 0.00 | 0.00 | 0.00 | 41 | 1016.6 |
| 20260506141333 | 13 | 194 | 1.6 | 4.8 | 0.00 | 0.00 | 0.00 | 43 | 1016.5 |
| 20260506140831 | 13 | 179 | 1.6 | 3.2 | 0.00 | 0.00 | 0.00 | 43 | 1016.5 |
| 20260506140327 | 13 | 242 | 0.0 | 0.0 | 0.00 | 0.00 | 0.00 | 44 | 1016.5 |
| 20260506135824 | 12 | 257 | 0.0 | 3.2 | 0.00 | 0.00 | 0.00 | 45 | 1016.3 |
| 20260506135321 | 12 | 293 | 0.0 | 3.2 | 0.00 | 0.00 | 0.00 | 47 | 1016.4 |
| 20260506134817 | 11 | 315 | 0.0 | 3.2 | 0.00 | 0.00 | 0.00 | 48 | 1016.3 |
| 20260506134314 | 11 | 75 | 0.0 | 1.6 | 0.00 | 0.00 | 0.00 | 49 | 1016.4 |
| 20260506133811 | 11 | 50 | 0.0 | 1.6 | 0.00 | 0.00 | 0.00 | 49 | 1015.9 |
| 20260506133308 | 11 | 70 | 0.0 | 4.8 | 0.00 | 0.00 | 0.00 | 51 | 1016.0 |
| 20260506132804 | 10 | 89 | 0.0 | 1.6 | 0.00 | 0.00 | 0.00 | 55 | 1016.0 |
| 20260506132302 | 8 | 48 | 0.0 | 3.2 | 0.00 | 0.00 | 0.00 | 57 | 1016.0 |
| 20260506131800 | 8 | 44 | 0.0 | 3.2 | 0.00 | 0.00 | 0.00 | 58 | 1015.8 |
| 20260506131255 | 7 | 59 | 0.0 | 3.2 | 0.00 | 0.00 | 0.00 | 60 | 1015.6 |
| 20260506130752 | 7 | 23 | 0.0 | 3.2 | 0.00 | 0.00 | 0.00 | 61 | 1015.6 |
| 20260506130249 | 7 | 316 | 1.6 | 4.8 | 0.00 | 0.00 | 0.00 | 61 | 1015.7 |